Wind_Speed
18 19 20 20 21 21 22 23 24 24 26 27 28 30 31 32 34 36 38 40 41 41 43 44 45 46 47 48 49 49 50 51 52 52 52 53 53 54 54 54 55 56 56 57 57 58 59 59 60 60 61 62 62 63 64 65 66 67 67 68 69 70 71 71 72 73 73 74 75 76 76 77 78 79 80 80 81 81 81 81 82 82 83 83 83 83
17 18 19 19 21 22 23 24 25 26 28 29 30 32 33 35 37 39 41 43 44 44 45 46 46 46 47 48 48 48 49 49 49 49 50 50 50 50 51 51 52 53 54 55 55 56 56 57 57 58 58 59 60 60 61 62 62 63 64 65 66 67 68 69 70 71 72 73 73 74 75 76 77 78 79 80 81 81 81 81 81 81 82 82 82 82
17 18 19 21 22 24 25 26 28 29 30 32 33 34 36 37 38 41 42 44 44 44 44 45 45 44 44 44 44 45 45 45 45 46 46 46 47 47 47 48 48 49 50 51 51 52 52 53 53 53 54 55 55 56 57 57 58 59 59 60 61 62 63 65 66 68 69 71 72 73 73 74 74 75 76 77 78 79 79 80 80 80 81 81 82 82
19 20 21 23 24 25 27 28 29 30 32 33 34 35 36 37 38 39 40 41 42 42 42 42 41 40 39 38 39 40 40 41 41 41 42 42 43 43 43 43 43 43 43 44 45 45 46 47 47 48 49 49 50 51 51 52 53 53 54 55 56 57 57 59 60 61 63 65 67 69 71 72 74 75 76 76 77 77 78 78 78 79 80 80 80 81
21 21 22 23 24 25 27 28 29 31 32 33 35 35 36 37 38 38 39 40 40 40 39 39 38 36 34 33 34 34 34 35 35 35 36 36 37 37 38 38 38 38 39 39 40 41 41 42 43 43 44 45 46 47 47 48 48 48 49 49 50 51 52 52 53 54 55 57 58 60 62 65 67 70 73 75 76 78 78 79 79 79 79 80 79 79
21 22 22 24 25 26 28 29 30 32 33 34 35 36 36 36 37 37 37 37 37 37 36 35 35 33 30 29 30 29 29 29 29 30 31 32 33 34 35 36 36 37 38 39 39 40 40 40 41 41 42 43 44 45 45 45 45 45 45 46 46 46 47 48 49 50 51 52 53 54 55 57 58 60 63 66 68 71 74 76 78 79 80 81 81 81
21 22 24 26 27 28 29 30 31 32 32 32 33 33 33 33 33 32 32 32 31 30 29 28 29 28 26 26 26 26 27 27 27 28 29 30 31 32 34 35 36 38 39 39 40 40 41 41 41 42 42 43 43 44 45 45 45 45 45 46 46 46 47 48 49 49 50 51 51 52 53 54 55 56 57 59 60 62 64 67 69 72 75 78 80 81
23 25 26 27 28 28 28 29 29 29 29 29 29 29 29 29 28 26 26 26 25 24 23 23 24 25 25 25 26 27 27 27 27 28 29 31 33 34 35 36 37 38 39 40 41 41 41 42 42 43 43 44 44 45 46 47 47 47 47 47 48 48 49 50 50 51 52 52 53 54 55 55 56 57 58 58 59 60 61 62 64 65 68 71 73 76
25 25 26 26 26 26 26 26 26 27 27 28 28 27 26 26 25 23 22 23 22 22 22 23 25 26 25 26 28 28 27 28 29 30 32 33 35 36 37 38 38 39 40 40 41 42 42 43 43 44 45 45 46 47 48 49 49 50 50 50 50 51 51 52 53 53 54 55 55 56 57 58 58 59 60 60 61 62 63 64 64 66 67 68 70 71
24 24 24 24 24 24 24 25 25 26 26 26 26 25 25 24 23 22 21 20 21 23 23 24 26 27 25 26 28 29 29 30 31 32 34 35 37 38 38 39 40 40 41 41 42 43 44 44 45 45 46 47 48 49 50 51 51 52 52 52 52 53 53 54 55 56 56 57 58 58 59 60 61 61 62 62 63 64 65 65 66 67 69 70 71 71
23 23 23 23 23 22 23 24 24 24 24 23 23 23 23 23 22 21 21 21 22 23 24 25 26 28 28 29 30 30 31 32 33 35 36 37 38 39 40 40 41 42 43 43 44 45 46 46 47 48 49 49 50 51 52 53 53 54 54 54 55 55 55 56 56 57 58 58 59 60 61 61 62 63 63 64 65 65 66 66 67 68 70 71 72 72
22 22 22 23 23 23 24 24 24 23 22 22 22 22 21 21 21 21 22 22 23 25 25 26 27 28 30 32 32 32 32 33 35 37 38 39 39 40 41 42 43 44 45 46 47 47 48 48 49 50 51 52 52 53 54 55 56 56 56 57 57 57 58 58 58 58 58 59 60 60 61 62 63 64 64 65 65 66 66 67 67 69 71 72 72 73
21 21 21 22 22 23 23 23 23 22 22 21 21 20 20 21 21 22 22 23 24 25 27 27 29 30 31 32 33 34 34 35 35 37 39 40 40 40 42 43 44 45 46 47 48 49 50 51 51 52 52 53 54 55 56 56 57 58 58 59 59 59 60 60 60 60 60 60 61 61 62 63 64 65 65 66 66 67 67 67 68 69 71 72 72 73
21 20 21 21 21 21 21 21 21 21 21 20 20 21 22 24 25 26 26 26 25 26 27 28 30 32 32 33 34 35 36 37 37 37 39 41 42 42 43 45 46 47 48 49 50 51 52 53 53 54 54 55 57 57 57 58 58 59 60 61 61 61 62 62 62 62 62 62 63 63 64 64 65 66 66 67 67 68 68 68 68 69 71 72 72 73
22 21 21 22 22 22 22 22 22 22 23 23 24 25 26 27 28 29 30 30 29 27 28 29 31 33 34 34 34 35 38 39 40 39 40 42 44 45 45 47 48 49 50 51 52 53 54 55 55 56 56 57 58 59 60 60 60 61 62 62 63 63 64 64 65 65 65 65 65 66 66 66 66 67 68 68 69 69 70 69 69 70 71 72 72 72
22 22 22 23 23 23 23 24 24 25 26 27 28 28 28 28 29 30 31 32 32 31 30 30 31 33 36 35 34 36 39 41 42 42 42 44 46 47 48 50 50 51 53 54 55 55 56 57 58 58 58 59 60 61 62 62 61 62 63 63 64 65 65 66 67 68 68 67 68 68 68 68 68 69 69 69 70 70 71 71 70 71 71 72 72 72
23 23 23 24 24 24 25 25 26 27 27 28 29 29 29 29 29 30 31 32 34 34 32 31 31 33 36 35 34 37 40 42 44 44 44 46 47 49 50 52 53 53 54 56 57 58 59 60 60 61 61 61 62 63 63 63 63 64 64 65 65 66 66 67 68 69 69 69 69 69 70 70 70 71 71 71 71 71 72 72 72 72 72 72 72 72
24 24 24 25 25 26 26 26 27 27 28 29 30 30 31 30 31 31 32 33 35 37 35 34 33 34 39 38 36 40 43 44 45 46 47 48 49 51 52 53 55 55 56 57 58 60 61 62 63 63 63 64 64 65 65 65 65 65 65 66 66 67 67 68 68 69 71 71 71 71 72 72 72 73 73 72 72 73 73 73 73 73 73 73 72 72
25 25 25 26 26 27 27 27 28 28 28 29 30 31 32 32 32 32 34 35 37 39 39 38 35 34 40 42 41 44 46 46 47 48 49 50 51 53 54 56 57 57 58 59 60 61 62 63 64 65 65 66 66 67 67 67 67 67 67 66 66 67 67 68 68 70 72 73 72 73 73 74 74 74 74 74 74 74 74 74 74 74 73 73 72 71
25 25 26 26 27 27 28 28 29 29 29 29 30 31 33 34 34 33 34 35 37 40 42 43 38 34 38 44 45 47 49 49 50 51 51 53 53 55 57 58 59 59 60 61 62 63 64 65 66 67 68 68 69 70 69 69 69 69 69 68 68 67 67 68 69 71 73 74 74 74 75 75 76 76 76 76 75 75 75 75 75 74 74 73 71 71
27 26 27 27 27 27 28 28 29 30 31 31 31 32 33 36 37 36 35 36 38 41 43 47 43 35 36 45 47 49 52 51 53 53 54 55 56 58 59 60 61 61 62 63 64 65 66 67 68 69 70 72 72 73 73 73 72 72 71 70 70 69 69 69 70 71 73 75 75 75 75 77 77 77 77 77 76 76 76 76 75 74 73 72 71 70
28 27 28 28 28 28 28 28 29 30 31 32 32 32 33 35 38 39 39 38 39 41 43 48 47 38 37 46 48 50 53 54 54 56 57 58 59 60 62 63 64 64 64 66 67 68 69 70 70 72 73 75 76 76 76 76 76 75 74 72 71 70 70 69 70 71 73 75 76 75 76 77 78 78 78 77 77 77 77 76 75 74 72 71 70 69
28 28 29 29 29 29 30 30 30 30 31 33 34 34 34 35 37 39 42 41 42 43 43 49 51 44 42 47 50 52 55 56 56 58 59 61 61 63 64 65 66 66 67 68 69 70 71 72 74 75 76 77 78 79 80 79 79 77 76 74 72 71 70 70 71 72 74 76 77 76 76 78 78 78 78 78 77 77 77 76 74 73 71 69 68 67
28 29 29 30 30 30 31 31 31 31 32 34 35 37 37 37 37 39 41 43 44 44 45 50 54 50 47 49 51 54 57 58 58 60 62 63 64 64 66 67 67 68 69 70 71 72 74 75 77 79 80 81 82 83 84 83 81 80 77 76 74 72 71 72 72 73 75 76 78 78 77 78 79 78 78 77 77 76 76 74 73 71 70 68 67 66
30 30 31 31 31 32 33 34 34 33 33 34 36 38 40 40 41 41 42 45 47 47 48 51 55 55 51 51 53 56 58 59 60 62 64 65 66 67 67 68 69 70 71 72 73 75 77 79 81 83 85 86 88 88 88 86 84 82 80 79 77 75 74 74 75 76 77 78 79 79 78 79 79 78 78 77 76 75 74 73 71 70 68 67 66 65
32 32 33 33 34 35 36 36 37 36 35 36 37 39 42 44 44 44 45 46 49 51 52 53 56 57 54 53 55 57 59 61 62 63 65 67 68 68 69 70 71 72 73 74 75 78 80 82 84 85 87 88 89 89 88 87 86 85 84 83 81 80 79 79 79 79 80 81 82 81 80 79 79 78 77 76 75 73 72 71 69 68 67 66 65 64
33 33 34 34 34 35 36 37 38 38 38 38 38 39 43 45 46 47 47 47 49 53 55 53 56 60 57 55 58 59 60 63 65 66 67 68 69 70 71 72 72 73 75 76 77 79 81 84 85 87 88 88 88 88 87 87 87 87 87 86 86 85 85 84 84 84 84 84 83 82 80 79 78 77 76 75 73 71 70 69 67 66 66 65 64 63
33 34 35 35 34 35 36 38 39 40 41 40 40 40 42 45 47 49 50 49 49 55 57 54 57 62 61 59 61 62 63 65 67 68 69 70 70 71 72 73 73 74 76 77 79 81 83 85 86 88 88 88 87 86 87 88 88 89 89 90 89 89 89 88 88 87 87 86 84 81 79 78 76 75 74 73 71 70 68 67 66 65 64 63 62 62
35 35 36 37 36 34 36 38 40 41 42 42 41 41 42 44 48 51 51 50 51 56 58 57 59 62 62 62 64 65 66 68 69 70 70 71 72 73 73 74 75 76 77 79 81 83 85 87 88 89 89 89 88 88 89 90 91 92 93 93 93 92 91 90 89 88 86 84 82 80 78 77 75 74 72 71 69 68 66 65 64 63 62 61 61 61
37 37 37 38 37 34 35 39 41 42 43 43 41 40 42 44 48 52 53 52 54 57 59 60 61 62 62 64 66 67 68 69 71 71 72 72 73 74 75 76 77 78 79 81 83 85 87 89 90 91 92 92 92 93 94 95 96 96 96 95 93 92 90 88 87 85 84 83 80 78 77 76 74 71 70 68 67 66 64 63 62 61 61 60 60 59
39 39 40 41 40 36 37 40 42 44 44 43 41 41 43 46 49 52 54 55 57 58 59 60 63 63 62 64 66 67 69 71 72 73 73 73 74 75 76 77 78 79 81 83 85 87 89 91 93 94 96 97 98 98 99 99 99 98 96 93 91 89 87 85 84 83 82 81 79 77 75 74 71 69 67 66 64 63 62 61 60 60 60 59 59 58
40 41 42 44 44 41 41 43 45 45 44 44 43 44 44 46 49 52 55 57 58 59 59 61 64 65 64 65 67 67 69 71 73 74 74 74 74 75 76 77 79 80 82 84 87 89 92 94 96 98 99 100 101 102 102 101 99 96 93 90 88 86 85 83 82 81 80 78 76 74 72 70 68 66 64 63 61 60 60 59 58 58 58 58 57 57
41 43 44 47 48 46 45 47 48 47 45 44 44 45 45 47 50 54 56 57 58 59 61 63 64 65 66 67 68 69 69 70 72 73 74 75 76 76 77 79 80 82 84 87 90 93 95 97 99 101 102 103 103 103 102 99 96 93 90 87 85 83 82 80 79 78 77 75 73 70 69 67 65 63 61 60 59 58 57 57 57 57 57 56 56 56
41 43 45 48 50 50 48 49 49 47 46 45 44 45 47 49 52 55 57 57 58 59 61 64 65 65 66 67 69 70 70 71 72 73 74 75 76 77 78 80 82 84 87 90 93 96 98 101 102 103 104 105 104 101 98 94 91 89 86 84 82 80 78 76 75 74 73 71 69 67 66 64 62 60 58 57 56 56 55 55 55 55 55 55 55 55
42 44 46 48 51 51 50 51 51 48 46 45 45 46 48 50 52 56 58 58 58 59 62 64 64 65 67 67 69 70 70 70 72 72 73 74 76 78 79 81 84 87 90 93 96 99 101 103 105 106 106 105 101 97 94 91 89 87 84 81 79 76 75 73 72 70 69 67 66 64 63 61 60 58 56 55 54 53 53 53 53 53 54 54 54 54
42 44 46 48 50 51 51 51 52 49 45 43 44 46 48 51 54 57 58 57 58 60 62 64 64 66 67 67 68 69 70 70 70 70 72 74 76 78 80 83 87 90 93 96 99 102 104 105 107 107 105 101 97 94 93 92 90 88 84 80 77 74 73 71 69 67 65 64 63 61 60 58 57 55 53 52 52 51 51 51 51 52 52 52 52 53
42 44 46 48 49 51 52 52 52 50 45 43 46 49 50 53 56 58 58 57 57 60 63 65 65 66 67 68 69 69 70 69 68 68 70 73 75 77 80 84 88 92 95 98 100 102 105 107 108 105 100 96 94 93 93 92 90 86 82 78 74 72 70 67 66 64 62 61 59 58 57 55 53 51 50 50 49 49 49 49 50 50 51 51 51 52
42 43 46 49 49 50 52 53 53 51 47 46 49 51 52 54 56 58 60 58 58 61 63 65 66 67 68 69 69 70 70 69 68 68 71 73 74 77 81 85 89 92 96 99 101 104 107 107 104 100 96 94 94 94 94 92 88 83 79 75 71 68 66 64 62 60 58 56 55 54 52 51 49 48 48 47 47 47 48 48 49 49 50 50 50 51
43 44 47 49 49 50 52 54 53 51 48 48 50 52 54 55 56 58 60 60 60 62 64 65 67 67 68 69 69 69 70 71 71 72 73 75 77 81 85 88 91 94 97 100 104 107 107 104 99 95 94 94 94 94 93 90 85 80 76 71 67 64 62 60 57 55 52 51 50 49 48 47 46 45 45 45 45 45 46 46 47 48 48 49 49 49
44 46 47 49 50 50 52 54 52 50 49 50 52 54 55 57 58 60 62 62 61 63 64 65 66 66 67 68 68 68 70 73 76 77 77 79 81 84 88 91 93 96 99 103 106 106 102 97 94 93 93 94 94 93 90 85 81 76 72 67 62 59 56 53 50 48 47 46 46 45 44 43 42 42 42 43 43 44 44 45 46 47 47 48 48 48
46 47 48 49 51 51 53 54 52 50 50 52 54 55 56 58 59 61 63 63 63 63 63 64 65 65 66 66 67 68 70 73 77 78 79 80 83 85 88 91 94 97 101 104 104 101 96 92 91 91 93 93 93 91 87 81 76 72 66 61 56 52 49 46 44 43 42 42 42 41 41 40 40 40 40 41 41 42 43 44 45 46 46 46 47 47
47 48 48 50 51 52 53 54 52 51 52 54 55 56 57 58 60 61 63 63 63 64 64 64 65 65 65 66 67 68 70 73 75 76 78 80 83 86 89 91 94 98 102 102 100 96 92 89 89 90 91 92 91 87 82 77 72 66 60 54 50 46 43 41 40 39 38 38 38 38 38 38 38 38 39 39 40 41 42 43 44 44 45 45 45 45
48 49 49 50 52 53 55 53 52 53 54 55 56 57 58 60 61 62 63 63 63 64 64 64 65 65 65 65 66 68 70 72 73 74 77 80 83 86 88 91 96 99 101 100 96 92 89 88 88 89 90 90 87 82 77 72 67 61 55 49 44 41 39 38 37 36 36 36 35 35 35 36 36 37 38 38 39 40 40 42 42 43 43 44 44 44
48 49 50 51 52 54 55 53 52 54 55 55 57 59 60 62 63 64 64 64 63 64 64 64 64 64 65 65 66 68 70 71 72 74 77 80 83 85 88 92 97 99 99 97 92 88 87 86 87 88 88 86 82 76 72 67 62 56 51 45 41 38 36 35 34 34 34 34 34 34 34 34 35 36 37 37 38 39 39 40 41 41 42 42 42 42
49 49 50 51 52 54 54 53 53 54 54 55 58 60 61 62 63 64 64 64 64 64 64 64 64 64 64 65 66 68 70 70 72 75 78 81 83 86 89 93 97 99 97 93 88 85 84 84 85 85 85 82 77 72 68 64 59 54 49 44 41 38 36 35 34 34 33 33 33 33 33 34 35 35 36 37 37 38 39 39 40 40 41 41 41 41
50 50 51 51 52 53 54 54 55 55 54 55 58 60 61 62 63 63 63 62 63 64 64 64 64 63 64 65 67 69 69 70 72 75 78 81 83 86 90 94 97 97 93 88 83 81 81 81 82 82 81 78 73 69 65 61 57 53 48 44 41 38 37 35 34 34 34 33 33 33 33 33 34 35 36 36 37 37 38 38 38 38 39 39 40 39
50 51 52 53 53 54 55 55 56 56 54 55 58 59 60 62 62 62 62 62 63 63 63 63 63 63 64 66 68 69 69 71 73 76 78 81 83 86 91 95 96 94 89 83 80 79 78 78 79 78 77 75 71 67 63 60 56 53 49 45 42 39 38 36 35 34 34 34 34 34 34 34 35 35 36 36 36 36 36 36 36 36 37 37 37 37
50 51 53 53 54 55 56 56 57 57 56 56 58 59 59 60 61 62 62 63 63 63 62 62 62 62 64 66 67 68 69 71 74 77 79 81 83 87 92 95 94 90 84 80 77 76 75 75 75 75 75 73 70 66 62 59 56 53 50 46 43 41 39 37 36 35 35 34 34 34 34 34 34 34 34 34 34 34 34 34 34 34 35 36 36 36
51 52 53 54 55 55 56 57 57 57 56 56 57 58 58 60 61 61 62 63 63 63 62 62 62 62 64 66 67 68 69 71 74 77 79 81 84 88 92 94 92 87 81 77 74 72 71 72 72 73 73 71 69 66 62 59 56 53 51 48 45 42 40 38 36 35 35 34 33 33 33 33 33 32 32 32 32 32 33 33 33 33 34 35 36 36
52 53 54 56 56 56 57 58 58 58 57 56 57 58 59 60 61 62 63 63 63 62 62 62 62 63 64 66 67 67 69 71 74 76 79 81 85 89 92 92 89 83 77 74 71 69 69 69 70 70 70 70 68 66 62 59 57 54 51 49 46 44 42 40 38 37 36 34 34 33 33 33 33 32 32 32 32 32 32 33 34 34 34 34 35 35
53 54 55 57 58 57 58 58 59 60 60 58 58 59 60 61 62 62 63 63 63 62 62 62 62 63 65 66 66 67 70 72 74 76 79 81 85 89 91 91 86 79 74 71 68 66 66 67 67 68 68 67 66 65 62 60 57 54 52 50 48 46 44 42 40 39 38 36 35 35 34 33 33 33 33 33 32 32 32 32 33 35 35 34 34 34
Wind_Direction
300 297 296 296 295 295 294 294 293 293 293 294 294 293 293 293 292 292 292 292 293 293 294 293 293 293 292 292 292 292 292 292 292 292 292 292 292 292 292 292 292 291 291 291 291 291 290 290 289 289 288 287 287 286 285 285 284 283 282 282 281 280 280 279 279 278 277 277 277 277 276 276 276 275 274 274 273 273 273 272 272 272 271 271 270 270
304 302 301 301 301 301 300 300 299 298 298 297 296 295 295 294 294 294 294 294 294 294 294 294 294 294 294 295 294 294 295 295 295 295 295 294 294 294 294 294 294 294 294 293 293 293 293 292 292 292 291 290 290 289 288 287 286 285 284 284 283 282 281 280 280 279 278 278 277 277 277 276 276 276 275 275 274 274 273 273 272 272 271 271 270 270
308 307 306 305 304 303 302 301 300 300 299 298 298 297 296 296 295 295 295 295 295 295 294 294 296 297 298 298 297 297 297 296 297 297 297 297 298 298 299 299 299 299 299 298 298 298 298 298 297 297 296 295 294 293 292 291 290 289 288 287 286 285 284 283 282 281 280 279 279 278 277 277 277 276 276 275 275 274 273 273 272 272 271 271 270 269
309 308 307 306 305 304 304 303 303 302 302 301 301 299 298 297 297 297 296 296 297 297 296 296 297 299 300 299 299 299 299 300 301 302 303 303 304 305 306 306 307 307 308 309 309 308 308 307 306 305 304 303 302 301 300 299 298 296 295 294 293 292 290 289 288 287 285 284 282 281 280 279 278 277 277 276 276 275 274 274 273 272 272 271 270 270
312 310 309 309 308 307 307 307 306 306 305 304 303 303 302 302 301 300 300 300 300 300 301 300 300 301 302 300 300 303 305 307 310 311 312 313 313 314 315 316 318 319 320 320 320 319 319 317 316 315 314 312 311 309 308 306 305 304 303 301 300 299 297 296 295 294 292 291 289 288 286 284 283 281 280 279 278 277 276 275 275 274 274 273 272 271
316 315 314 313 313 312 312 311 310 310 309 309 308 307 307 306 306 306 305 306 306 307 307 306 305 305 305 305 308 313 317 320 322 322 321 321 322 323 324 325 325 325 325 324 323 323 322 322 321 320 318 317 315 313 312 311 309 308 307 306 304 303 302 301 300 299 297 296 295 294 292 291 289 288 286 284 282 281 279 278 277 277 276 275 274 273
320 318 317 317 317 316 316 316 316 315 315 314 313 313 313 313 313 313 312 312 312 313 313 313 312 314 316 319 324 328 329 328 328 326 325 324 326 327 327 327 326 325 324 323 322 322 321 320 319 318 317 316 315 314 313 312 311 310 308 307 306 305 304 303 303 302 301 300 299 298 297 296 295 293 292 291 290 288 286 284 282 281 280 278 277 276
324 322 323 322 322 322 323 323 323 323 323 323 324 325 324 324 324 324 323 322 323 324 325 327 328 331 333 334 335 335 333 330 329 328 328 329 330 330 330 329 327 326 324 324 323 322 322 320 319 318 317 315 314 312 311 310 310 309 308 307 306 305 304 304 303 303 302 301 301 300 299 298 298 297 296 295 294 293 291 290 288 286 285 283 281 279
329 328 329 328 329 331 331 332 333 335 337 337 337 337 336 336 338 340 338 337 337 337 341 343 341 341 341 339 337 337 335 333 333 333 333 333 333 333 332 330 328 327 326 325 324 324 323 322 320 319 318 316 314 313 311 310 309 308 308 307 306 305 304 303 303 302 302 301 301 300 300 299 299 298 298 297 296 295 294 293 292 290 289 287 286 284
334 336 336 337 340 340 340 342 345 347 348 346 345 345 346 347 348 348 347 346 345 346 349 349 343 341 342 340 337 337 337 337 336 336 336 335 334 332 331 329 328 327 326 325 325 324 323 322 321 320 319 317 316 314 312 311 310 309 309 308 307 306 304 304 303 302 302 301 301 300 300 299 298 298 297 297 296 295 294 294 293 291 290 289 288 286
342 344 345 347 348 348 350 352 354 355 354 353 353 354 354 354 352 351 351 351 351 350 350 348 343 340 341 341 338 338 338 338 337 337 336 335 333 331 329 328 327 326 325 324 324 323 322 322 321 320 319 317 316 314 313 312 311 311 310 309 308 307 306 305 304 303 302 302 301 300 299 299 297 297 296 295 295 294 293 293 292 291 290 289 289 288
351 351 352 354 353 355 358 358 359 359 357 358 1 360 357 354 352 353 352 352 353 351 348 347 343 339 340 340 338 337 338 338 338 337 335 333 331 329 327 327 326 325 324 324 323 322 321 320 320 319 318 317 315 314 313 312 311 311 310 309 309 308 307 306 305 304 304 302 302 301 300 298 297 296 295 294 294 293 293 292 292 291 290 290 289 288
355 355 356 356 356 359 359 359 0 358 356 359 358 354 351 348 348 350 349 349 352 349 347 346 342 339 340 339 336 336 336 337 337 336 333 330 328 328 327 326 325 324 323 323 322 321 320 319 319 319 318 316 315 314 313 312 311 311 310 309 309 309 308 307 306 305 304 303 302 301 300 299 298 297 296 295 294 293 292 292 291 291 290 290 289 288
356 357 357 357 358 359 358 358 356 353 353 353 350 348 348 348 347 348 346 347 350 349 345 345 342 338 339 338 336 335 334 334 336 334 331 328 326 327 326 325 324 323 322 322 321 320 319 319 319 318 318 316 315 314 313 313 312 311 310 309 309 308 307 307 306 305 304 303 303 302 301 301 300 299 298 296 295 294 293 292 292 291 290 290 289 289
354 355 355 355 355 354 353 352 350 348 349 348 347 349 349 349 349 346 344 343 345 346 344 345 343 338 336 337 336 334 333 332 332 332 330 328 326 326 326 325 324 323 322 321 320 319 319 318 318 318 318 317 315 315 314 314 313 311 309 308 307 307 306 306 306 305 304 304 304 303 303 302 301 300 299 298 296 295 294 293 292 291 291 290 290 289
350 351 351 350 350 348 347 347 346 346 346 346 347 347 347 348 347 344 342 340 339 341 342 343 343 338 334 335 335 333 331 330 329 329 329 327 326 325 325 324 324 323 322 321 320 319 318 318 318 318 318 317 317 316 315 315 313 311 309 307 306 305 305 305 305 304 304 304 304 304 303 303 302 301 300 299 297 296 295 294 293 292 291 290 290 289
348 349 348 347 346 345 345 345 345 345 345 344 344 343 343 344 343 341 340 338 335 336 338 339 341 338 331 332 334 331 329 328 326 327 327 327 325 324 324 323 323 323 322 321 320 319 318 318 318 318 318 318 317 317 316 315 313 311 309 307 305 304 304 304 304 304 304 304 304 303 303 303 302 301 300 299 298 297 296 295 293 292 291 291 290 289
346 347 347 346 345 345 346 345 345 345 343 341 340 340 341 341 341 339 337 336 333 332 334 335 340 340 330 329 333 329 327 327 325 325 327 326 325 324 323 323 322 322 321 320 319 318 318 318 318 318 317 317 316 315 315 314 312 311 309 307 305 303 302 302 302 302 302 302 302 302 302 302 302 301 300 299 298 297 296 295 294 293 292 291 290 290
346 346 346 345 344 345 346 344 344 344 341 340 339 339 339 338 339 338 336 336 333 331 331 332 339 343 331 328 332 328 326 326 325 325 326 325 325 324 323 322 321 321 321 320 318 318 317 317 317 317 316 315 314 313 313 312 311 310 308 306 304 302 300 299 299 299 299 300 301 301 301 301 301 301 300 299 298 297 296 295 294 293 292 291 291 290
346 346 346 345 344 344 345 343 342 341 340 340 339 337 337 335 335 337 336 335 333 330 329 328 336 346 333 327 330 327 325 326 325 325 325 324 324 323 322 322 321 320 320 319 318 317 317 317 316 315 314 314 313 312 311 311 310 309 307 306 304 301 299 298 297 297 297 298 299 299 299 300 300 300 299 298 297 296 295 294 293 293 292 291 291 290
345 346 346 345 343 342 343 342 340 340 340 340 339 337 337 334 333 334 334 334 332 330 329 325 332 345 335 326 329 327 324 324 324 324 324 323 323 323 322 321 320 320 320 318 317 317 317 317 316 315 314 313 312 311 311 310 309 308 307 306 304 301 299 297 296 296 296 297 297 298 298 299 299 298 298 297 296 295 294 294 293 292 292 291 291 290
344 345 344 344 342 341 341 341 341 341 340 339 337 336 335 333 331 331 331 332 330 329 328 322 326 339 334 326 328 326 322 323 323 323 323 323 323 322 322 321 321 320 320 319 318 318 317 317 316 315 314 313 312 312 311 310 309 308 307 305 303 301 299 297 296 295 295 295 296 296 297 297 297 297 296 295 295 294 293 293 292 292 291 291 290 290
343 343 343 342 342 340 340 339 339 340 339 337 335 334 333 331 330 328 328 329 328 328 326 320 322 332 333 328 328 325 321 322 322 322 322 322 322 322 322 321 321 320 320 319 318 318 317 317 316 315 314 313 312 311 310 310 309 308 307 306 304 302 299 298 296 296 295 295 295 296 296 296 296 295 294 294 293 293 292 292 292 291 291 290 290 290
342 342 341 341 341 340 338 337 337 339 339 336 335 333 331 329 328 326 326 325 325 326 323 319 320 326 330 328 327 324 321 321 322 322 322 322 322 322 322 321 321 320 320 319 319 318 318 317 317 316 315 314 313 312 311 311 310 309 308 306 305 303 301 299 297 296 296 295 295 295 295 295 294 293 293 292 292 291 291 291 291 291 290 290 290 289
342 340 340 340 340 338 336 335 335 337 338 335 334 332 328 327 326 325 325 324 323 322 320 318 320 323 326 329 327 323 321 321 322 323 322 322 322 323 322 321 321 320 320 320 319 319 319 318 318 317 316 315 315 314 314 313 312 311 309 308 307 304 302 300 299 297 296 295 295 295 295 294 293 292 291 291 290 290 290 290 290 290 289 289 289 288
341 340 339 340 340 338 335 334 334 335 335 334 334 331 327 325 324 324 324 324 322 319 318 320 321 320 324 328 325 322 321 321 322 322 322 322 322 322 322 321 321 321 321 321 320 320 319 318 318 317 316 316 316 315 314 313 312 311 310 309 307 306 304 302 300 298 297 296 295 295 295 293 292 291 291 290 290 290 290 290 289 289 288 288 288 287
340 339 338 339 340 337 334 332 331 332 333 333 333 332 327 323 322 321 321 322 321 317 318 323 321 318 323 326 322 321 322 322 322 322 322 322 322 322 322 321 321 321 321 321 320 319 318 317 317 316 316 316 315 314 313 312 311 310 309 308 307 306 304 302 301 299 298 297 296 296 295 293 292 292 291 290 290 290 289 289 288 288 288 287 287 286
339 338 336 336 338 337 333 330 329 330 330 331 333 332 326 322 320 319 319 321 319 315 318 323 320 318 323 325 322 321 323 321 321 322 322 322 323 322 321 321 321 322 321 320 319 318 317 317 316 316 316 315 314 313 312 311 310 309 308 307 306 305 303 302 301 299 298 297 297 296 295 293 292 292 291 290 290 290 289 288 288 287 287 286 285 285
336 336 335 334 336 338 333 328 328 329 328 330 332 330 325 321 318 316 317 319 317 315 318 321 319 319 323 323 321 322 323 321 321 322 322 323 323 322 321 322 322 322 321 320 319 318 317 317 316 316 315 315 313 312 311 310 309 308 307 307 305 304 303 301 300 299 298 297 296 295 294 293 292 291 291 291 291 290 289 288 288 287 286 285 284 284
334 334 334 332 334 339 334 327 328 328 328 331 332 328 324 320 317 315 316 317 317 318 320 320 319 320 322 322 321 322 322 321 321 322 323 324 323 322 322 322 322 321 320 319 318 318 317 317 316 316 315 314 313 313 312 311 310 309 307 306 305 303 302 300 299 298 297 296 295 294 293 293 292 292 291 291 291 290 289 288 288 287 286 284 284 283
332 333 333 330 333 338 334 328 327 327 329 333 333 330 325 320 317 315 316 317 318 320 321 320 318 320 322 322 321 321 321 321 322 323 324 325 323 322 322 322 322 321 320 319 318 318 317 317 316 316 315 315 315 314 313 312 310 309 308 306 304 303 301 300 298 297 296 295 294 294 293 293 292 292 292 292 291 290 289 288 287 286 285 284 283 283
332 332 332 330 332 336 333 328 328 329 332 335 335 331 326 320 317 317 317 318 319 321 322 321 320 321 322 321 320 321 321 322 323 324 325 324 323 322 322 322 321 320 320 319 319 318 318 318 317 317 316 316 315 314 313 312 311 309 308 306 304 303 301 299 298 296 295 294 294 294 293 293 293 293 293 292 291 290 289 288 286 285 284 284 284 284
333 333 332 330 332 335 333 329 328 331 335 337 336 330 324 321 319 318 318 320 321 322 323 321 321 322 322 321 321 321 322 323 323 325 325 324 322 322 322 322 321 321 320 320 320 320 319 318 318 317 317 317 316 315 314 312 311 310 308 307 305 303 301 300 298 296 295 295 294 294 293 293 293 293 293 292 290 289 288 287 286 285 284 284 284 284
334 334 333 331 332 335 334 329 329 332 336 338 336 328 323 321 319 318 320 322 324 325 323 321 321 322 322 322 322 322 323 324 325 326 325 322 321 322 322 322 322 322 322 321 321 320 320 319 318 318 318 318 317 315 314 313 312 311 309 308 306 304 301 299 297 296 295 295 294 294 293 293 294 293 292 291 289 288 288 287 286 285 285 284 284 284
336 335 334 333 332 334 334 330 329 333 337 339 334 326 321 320 320 320 322 324 325 324 321 320 322 322 322 323 323 323 324 325 326 325 323 322 322 323 324 324 323 323 323 322 322 321 320 319 319 319 319 318 317 317 316 315 314 312 310 308 306 303 301 299 297 296 295 295 294 294 294 294 294 292 291 290 289 288 287 286 285 285 284 284 284 284
336 335 335 334 333 334 333 330 329 332 338 338 330 322 321 322 322 323 324 326 326 323 321 322 323 323 323 323 324 324 325 326 326 324 322 322 324 325 325 325 324 324 324 323 322 321 320 320 320 320 320 320 319 319 318 317 315 313 311 308 305 303 301 299 298 297 296 296 296 296 295 294 293 292 290 289 289 288 287 286 285 285 285 284 285 284
336 335 335 335 335 334 332 331 331 333 337 335 326 322 324 325 324 324 325 327 327 323 323 324 324 323 324 325 325 325 325 324 324 324 323 324 326 326 326 325 325 324 324 323 322 321 320 321 322 322 322 321 321 321 319 318 316 314 312 309 306 303 302 300 298 297 297 297 296 296 294 293 292 291 290 289 288 287 287 286 286 285 285 285 285 285
337 336 336 336 337 335 331 331 332 334 336 332 325 325 327 326 325 324 325 328 329 325 325 325 324 325 326 326 326 325 323 323 324 325 326 327 328 327 326 326 325 325 324 323 322 322 322 323 324 324 324 323 323 322 320 319 317 315 312 309 306 304 302 300 299 298 298 297 295 294 293 292 290 290 289 289 288 287 287 286 286 286 286 286 285 285
337 337 338 338 338 336 331 331 332 333 332 328 325 327 328 326 326 325 326 330 330 327 326 326 326 327 327 326 325 324 323 325 327 328 329 329 329 328 327 327 326 325 325 324 323 324 325 325 326 326 325 325 324 323 321 320 318 316 313 310 307 304 301 300 300 299 298 296 294 293 292 291 291 290 290 290 289 288 287 287 287 287 287 287 287 287
337 337 339 339 338 337 333 332 333 332 329 326 327 329 329 327 327 327 328 331 331 328 327 327 327 327 326 325 325 326 326 328 329 331 331 330 330 329 328 327 327 326 326 325 325 326 327 327 327 327 326 326 325 324 323 322 320 318 315 312 308 305 303 302 300 299 296 295 293 292 292 292 292 291 291 290 289 289 288 288 288 288 288 288 288 288
336 337 339 339 338 337 335 334 334 331 328 328 329 330 329 328 328 328 329 330 330 329 328 327 326 326 326 326 327 328 329 330 330 331 331 330 329 329 328 328 328 327 327 327 327 328 328 329 329 328 328 328 327 326 326 325 323 321 318 315 311 308 306 303 301 298 296 295 294 294 294 294 293 292 291 291 290 290 290 289 289 289 289 289 289 289
336 337 338 339 338 337 336 335 333 330 330 330 330 330 329 328 329 330 331 330 329 329 329 327 327 327 327 328 329 330 330 330 330 330 330 329 329 329 329 329 329 328 328 328 328 329 330 331 331 330 330 330 329 329 329 328 327 325 323 320 317 314 310 306 303 300 299 298 297 297 297 296 295 295 294 293 293 293 292 292 291 291 291 291 291 291
336 336 337 338 337 336 337 336 332 330 331 331 330 330 329 330 330 331 332 331 330 329 329 328 328 328 329 329 330 330 330 330 330 330 330 330 330 330 330 330 330 329 328 329 330 332 332 333 333 333 333 333 333 333 333 332 331 330 328 326 324 321 317 312 309 306 305 303 302 301 300 299 298 297 296 296 296 295 294 294 294 294 293 293 293 292
337 336 336 338 337 336 337 336 331 331 332 331 331 331 330 331 332 332 332 332 331 330 329 329 329 329 330 330 330 330 330 330 330 330 331 331 331 331 332 332 330 330 330 331 333 334 335 335 336 336 336 336 336 337 337 336 336 335 334 332 330 327 324 319 316 314 311 309 307 305 304 303 302 301 300 299 298 297 297 296 296 296 295 295 295 294
339 337 335 337 337 336 337 335 332 333 334 332 331 331 331 332 332 332 332 331 331 330 330 330 330 330 330 330 330 330 331 331 331 331 331 332 333 333 333 333 331 331 332 334 336 336 337 338 339 339 339 340 340 341 341 341 342 341 340 339 337 334 331 327 324 321 317 315 313 311 310 308 306 305 304 303 302 301 300 300 299 299 298 298 297 297
339 337 335 336 337 336 337 335 333 335 335 332 330 331 331 332 332 332 331 331 331 331 331 330 330 330 330 330 331 331 331 331 332 332 332 333 334 334 334 334 333 333 335 336 337 338 339 341 341 342 343 344 345 345 346 346 347 347 346 345 343 341 337 334 330 327 324 321 319 317 315 313 311 309 307 306 305 305 304 303 303 302 301 301 300 300
338 337 336 336 337 337 337 336 335 336 335 332 331 331 332 332 332 332 332 332 331 332 331 331 331 331 331 331 331 332 332 332 332 333 334 335 335 336 335 335 334 335 337 338 339 340 342 343 344 345 347 348 349 350 350 351 352 352 352 350 348 346 343 339 335 332 329 326 323 321 319 317 315 313 312 311 310 310 309 308 307 306 305 304 303 303
337 337 336 336 338 337 336 336 337 337 336 333 331 331 331 331 332 333 333 333 332 332 332 331 331 331 331 331 332 332 333 333 333 334 335 336 336 337 337 336 336 337 339 340 341 342 344 345 347 348 350 352 353 354 354 355 356 356 356 355 353 351 348 344 341 338 335 333 330 327 325 323 321 320 318 317 316 315 314 313 311 310 308 307 306 306
336 336 336 337 338 338 336 336 337 337 336 333 331 331 332 332 333 334 334 334 333 333 332 331 331 332 332 332 332 333 333 334 334 335 336 337 338 338 338 337 337 339 341 341 343 344 346 347 349 351 353 355 356 357 358 359 359 359 359 359 357 355 353 350 346 344 342 339 337 334 332 330 328 326 324 323 322 320 319 317 315 313 311 310 310 309
335 336 336 336 338 338 336 336 336 336 335 334 332 332 333 334 334 335 334 334 334 333 332 332 332 332 332 333 333 334 334 335 336 337 337 338 339 339 339 338 339 341 342 343 344 346 347 349 350 353 355 357 359 360 0 1 2 2 2 2 1 360 358 355 352 350 348 345 343 340 338 336 334 332 330 328 327 325 323 321 319 317 316 315 314 313
335 335 336 336 337 338 336 336 336 335 335 334 334 334 334 335 335 335 335 334 334 334 333 333 333 333 333 334 334 334 335 336 337 338 339 340 340 340 340 340 341 342 343 344 345 346 348 349 351 353 356 358 0 2 2 3 3 3 4 4 3 3 2 0 359 357 355 352 350 348 345 343 341 338 336 334 332 331 329 327 324 322 321 320 318 316
Height
5748 5747 5746 5744 5743 5743 5742 5740 5739 5737 5736 5734 5732 5730 5729 5726 5723 5720 5717 5715 5716 5716 5713 5711 5708 5705 5703 5701 5699 5696 5693 5691 5689 5687 5684 5682 5680 5678 5675 5672 5670 5667 5664 5662 5660 5657 5654 5652 5649 5646 5644 5641 5639 5636 5634 5631 5628 5626 5623 5621 5618 5615 5613 5611 5608 5606 5603 5601 5598 5596 5594 5591 5589 5587 5586 5585 5584 5582 5581 5579 5577 5575 5574 5574 5572 5572
5746 5745 5744 5742 5741 5740 5739 5737 5736 5734 5732 5731 5729 5726 5725 5723 5719 5716 5713 5711 5710 5711 5709 5705 5703 5700 5697 5695 5693 5690 5688 5686 5683 5681 5678 5676 5674 5672 5669 5666 5664 5661 5658 5655 5653 5650 5647 5645 5642 5639 5636 5633 5631 5628 5625 5623 5620 5617 5615 5612 5609 5606 5604 5602 5599 5597 5594 5592 5589 5587 5584 5582 5579 5577 5575 5574 5572 5572 5570 5568 5566 5564 5562 5561 5560 5560
5744 5743 5741 5740 5738 5736 5735 5734 5732 5730 5729 5727 5724 5722 5720 5719 5715 5711 5709 5706 5705 5706 5703 5700 5698 5695 5692 5689 5686 5685 5683 5680 5678 5675 5673 5671 5668 5666 5663 5661 5658 5655 5652 5649 5647 5644 5641 5638 5635 5632 5629 5626 5624 5621 5618 5615 5612 5610 5607 5604 5601 5598 5596 5593 5590 5588 5585 5583 5581 5578 5576 5573 5571 5568 5566 5564 5562 5561 5560 5557 5556 5553 5551 5550 5548 5548
5742 5741 5739 5737 5735 5734 5732 5730 5728 5726 5724 5722 5720 5718 5715 5714 5712 5707 5705 5702 5700 5700 5698 5695 5694 5691 5688 5685 5682 5681 5678 5676 5673 5670 5668 5665 5663 5661 5658 5656 5653 5650 5647 5644 5641 5638 5635 5632 5629 5626 5623 5620 5617 5614 5611 5608 5605 5602 5599 5597 5594 5591 5588 5585 5582 5580 5577 5575 5572 5570 5567 5565 5562 5560 5557 5555 5553 5552 5550 5548 5547 5544 5541 5540 5538 5537
5739 5738 5736 5734 5733 5731 5729 5727 5725 5723 5720 5718 5716 5714 5711 5709 5707 5704 5701 5698 5696 5695 5693 5691 5689 5688 5685 5682 5680 5678 5675 5672 5670 5667 5664 5661 5659 5656 5653 5651 5648 5645 5642 5639 5636 5633 5630 5627 5624 5621 5618 5615 5612 5609 5606 5603 5600 5597 5594 5591 5588 5585 5582 5578 5575 5573 5570 5567 5564 5561 5558 5556 5553 5551 5548 5546 5544 5542 5540 5538 5537 5534 5531 5529 5528 5527
5737 5735 5733 5731 5729 5727 5725 5723 5721 5719 5716 5714 5712 5710 5707 5705 5702 5699 5696 5693 5691 5689 5687 5685 5684 5684 5682 5678 5676 5675 5672 5670 5667 5664 5661 5658 5656 5652 5649 5646 5643 5640 5638 5635 5632 5629 5626 5623 5620 5617 5614 5611 5607 5604 5601 5598 5595 5592 5589 5586 5582 5579 5576 5573 5569 5566 5563 5560 5557 5554 5551 5548 5545 5542 5539 5536 5534 5532 5530 5528 5527 5524 5520 5518 5517 5516
5734 5732 5730 5728 5726 5724 5721 5719 5717 5715 5713 5711 5708 5706 5703 5701 5698 5696 5693 5690 5688 5686 5684 5682 5680 5680 5677 5674 5672 5671 5669 5666 5664 5661 5658 5655 5652 5649 5646 5643 5640 5637 5634 5631 5628 5625 5622 5619 5616 5613 5610 5607 5603 5600 5597 5593 5590 5587 5584 5581 5577 5574 5570 5567 5563 5560 5557 5553 5550 5547 5543 5540 5537 5534 5531 5528 5526 5523 5520 5518 5517 5514 5510 5507 5506 5505
5731 5729 5726 5724 5722 5720 5718 5716 5714 5712 5710 5707 5705 5702 5699 5697 5695 5693 5690 5687 5686 5684 5682 5679 5677 5676 5673 5670 5669 5667 5665 5663 5661 5658 5655 5651 5648 5645 5643 5640 5637 5634 5631 5628 5625 5622 5618 5615 5612 5608 5605 5602 5599 5595 5592 5588 5585 5582 5579 5575 5572 5568 5564 5561 5557 5553 5550 5546 5543 5539 5536 5532 5529 5526 5523 5520 5517 5514 5512 5510 5507 5504 5500 5497 5495 5494
5728 5725 5723 5721 5719 5717 5715 5713 5711 5709 5706 5703 5701 5699 5696 5694 5692 5691 5688 5685 5683 5682 5679 5676 5674 5672 5671 5668 5666 5664 5662 5660 5657 5654 5650 5647 5644 5641 5638 5636 5633 5630 5627 5624 5621 5617 5614 5611 5608 5604 5600 5597 5594 5590 5587 5583 5579 5576 5573 5569 5565 5562 5558 5554 5550 5546 5542 5539 5535 5531 5528 5524 5521 5518 5515 5512 5509 5506 5503 5501 5498 5495 5491 5488 5485 5483
5725 5723 5721 5719 5717 5715 5713 5711 5708 5705 5703 5701 5698 5696 5694 5693 5691 5689 5687 5685 5682 5680 5677 5674 5672 5670 5668 5666 5664 5661 5659 5656 5653 5649 5646 5643 5640 5638 5635 5632 5629 5626 5623 5620 5617 5613 5610 5606 5603 5599 5596 5592 5589 5585 5581 5577 5574 5570 5566 5562 5559 5555 5551 5547 5543 5539 5535 5531 5528 5524 5520 5516 5513 5510 5506 5503 5500 5497 5494 5491 5489 5485 5481 5478 5475 5473
5724 5721 5719 5717 5715 5713 5711 5708 5706 5704 5702 5700 5697 5695 5693 5692 5690 5688 5686 5683 5681 5678 5676 5673 5670 5667 5665 5663 5661 5658 5655 5652 5649 5646 5643 5640 5637 5634 5632 5629 5625 5622 5619 5615 5612 5609 5605 5602 5598 5594 5591 5587 5583 5579 5575 5571 5567 5563 5559 5555 5552 5548 5544 5540 5536 5532 5528 5524 5520 5516 5512 5508 5505 5502 5498 5495 5491 5488 5485 5482 5479 5475 5471 5468 5465 5463
5722 5719 5717 5715 5713 5711 5708 5706 5704 5702 5700 5698 5696 5694 5693 5691 5689 5687 5684 5682 5679 5677 5674 5672 5668 5665 5663 5660 5657 5655 5652 5649 5646 5643 5640 5637 5634 5631 5628 5625 5621 5618 5614 5611 5607 5604 5600 5597 5593 5589 5585 5581 5577 5573 5569 5565 5561 5557 5552 5548 5544 5540 5536 5532 5528 5525 5520 5516 5512 5509 5504 5500 5496 5493 5490 5486 5483 5479 5476 5473 5470 5466 5461 5458 5455 5452
5721 5719 5716 5714 5712 5709 5707 5705 5703 5701 5699 5697 5696 5695 5693 5691 5688 5686 5683 5680 5678 5675 5672 5670 5666 5663 5661 5658 5655 5652 5649 5646 5644 5640 5637 5634 5631 5628 5625 5621 5618 5614 5610 5607 5603 5599 5595 5591 5588 5584 5580 5575 5571 5567 5562 5558 5554 5549 5545 5540 5536 5532 5527 5524 5520 5516 5512 5508 5504 5501 5496 5492 5488 5484 5481 5477 5473 5469 5466 5464 5460 5456 5451 5448 5445 5442
5720 5718 5715 5713 5711 5709 5707 5704 5703 5701 5699 5697 5695 5693 5691 5688 5685 5682 5680 5678 5676 5674 5671 5668 5664 5660 5658 5656 5652 5649 5646 5643 5641 5638 5635 5632 5628 5625 5621 5617 5613 5609 5605 5602 5598 5594 5590 5586 5582 5578 5574 5569 5564 5560 5555 5551 5546 5541 5537 5532 5528 5524 5519 5515 5511 5507 5504 5500 5496 5492 5487 5483 5478 5474 5470 5467 5463 5459 5456 5453 5450 5446 5441 5437 5434 5431
5718 5716 5714 5712 5709 5707 5706 5704 5702 5699 5697 5694 5692 5689 5686 5684 5681 5678 5676 5674 5673 5671 5669 5666 5662 5657 5655 5653 5649 5646 5643 5639 5637 5635 5632 5628 5624 5620 5617 5613 5609 5605 5601 5597 5593 5589 5584 5580 5576 5572 5568 5563 5557 5553 5548 5544 5539 5534 5529 5524 5520 5516 5511 5506 5502 5498 5494 5490 5486 5482 5477 5473 5469 5464 5460 5456 5452 5448 5445 5442 5439 5435 5430 5426 5423 5420
5718 5715 5713 5711 5708 5706 5704 5701 5699 5696 5693 5690 5687 5685 5683 5681 5679 5676 5673 5670 5668 5667 5666 5663 5660 5654 5651 5649 5646 5642 5639 5636 5633 5630 5627 5624 5619 5615 5612 5607 5603 5599 5595 5591 5587 5583 5578 5574 5570 5565 5561 5556 5551 5545 5540 5536 5531 5526 5521 5516 5512 5507 5502 5498 5493 5488 5484 5480 5475 5471 5467 5463 5459 5454 5450 5446 5441 5437 5433 5431 5428 5424 5420 5416 5412 5409
5716 5714 5712 5710 5707 5705 5702 5699 5697 5694 5691 5688 5685 5683 5681 5679 5677 5674 5671 5668 5665 5663 5662 5660 5658 5653 5647 5646 5644 5640 5636 5633 5629 5626 5623 5619 5614 5610 5606 5602 5598 5594 5589 5585 5580 5576 5572 5567 5563 5558 5553 5549 5544 5538 5533 5528 5523 5518 5513 5508 5503 5498 5493 5488 5483 5478 5473 5469 5465 5461 5456 5452 5448 5444 5439 5435 5431 5426 5422 5419 5416 5413 5409 5405 5401 5397
5715 5712 5710 5708 5705 5703 5700 5697 5695 5692 5689 5686 5684 5681 5678 5676 5674 5671 5668 5666 5662 5659 5657 5656 5655 5649 5643 5641 5640 5636 5632 5629 5625 5621 5618 5614 5609 5605 5601 5597 5592 5588 5584 5579 5574 5569 5565 5560 5555 5551 5546 5542 5537 5532 5527 5521 5516 5511 5505 5500 5494 5489 5484 5479 5473 5468 5462 5458 5455 5450 5446 5441 5437 5433 5429 5424 5420 5416 5411 5407 5403 5400 5397 5393 5389 5386
5713 5711 5708 5706 5703 5701 5698 5695 5693 5690 5688 5685 5682 5679 5676 5673 5671 5668 5665 5662 5658 5654 5651 5651 5651 5647 5639 5635 5634 5630 5626 5623 5620 5616 5612 5608 5604 5599 5595 5591 5586 5582 5578 5573 5568 5563 5558 5553 5548 5543 5538 5534 5530 5525 5521 5515 5510 5504 5498 5493 5487 5482 5476 5471 5465 5460 5454 5449 5445 5440 5436 5431 5426 5422 5417 5413 5409 5405 5400 5396 5392 5388 5385 5382 5378 5375
5712 5709 5706 5704 5701 5699 5696 5693 5691 5688 5686 5683 5680 5677 5674 5670 5668 5666 5663 5660 5656 5651 5646 5644 5646 5645 5637 5631 5629 5625 5620 5617 5613 5610 5607 5603 5599 5594 5589 5585 5581 5576 5572 5566 5561 5556 5551 5546 5541 5536 5530 5526 5521 5517 5512 5508 5502 5497 5491 5486 5480 5474 5469 5463 5458 5451 5445 5439 5435 5430 5425 5420 5415 5411 5406 5402 5398 5393 5389 5385 5381 5377 5373 5370 5367 5363
5709 5707 5704 5702 5699 5697 5694 5692 5689 5686 5683 5680 5677 5674 5671 5667 5664 5662 5660 5657 5653 5649 5644 5638 5638 5642 5635 5628 5625 5619 5614 5612 5607 5604 5601 5596 5592 5588 5583 5578 5573 5569 5564 5558 5553 5548 5543 5538 5532 5527 5521 5516 5511 5507 5502 5498 5493 5487 5482 5477 5471 5465 5460 5454 5448 5442 5435 5429 5425 5420 5415 5409 5404 5400 5395 5390 5386 5382 5377 5373 5369 5365 5362 5359 5355 5352
5707 5705 5702 5700 5697 5695 5692 5690 5687 5684 5681 5678 5675 5672 5670 5666 5661 5657 5655 5654 5650 5646 5642 5634 5632 5636 5633 5625 5621 5615 5609 5606 5602 5598 5594 5590 5586 5581 5575 5570 5564 5560 5555 5549 5544 5539 5533 5528 5523 5517 5512 5506 5500 5495 5491 5486 5482 5477 5472 5467 5461 5455 5450 5444 5438 5432 5425 5418 5413 5409 5404 5398 5393 5388 5383 5378 5374 5369 5365 5361 5357 5353 5350 5347 5344 5340
5705 5703 5700 5698 5695 5692 5690 5687 5685 5682 5679 5675 5672 5669 5667 5664 5659 5655 5650 5648 5646 5643 5639 5632 5626 5628 5628 5621 5616 5611 5605 5601 5597 5592 5587 5584 5579 5574 5568 5562 5556 5551 5546 5540 5534 5529 5523 5518 5512 5507 5501 5496 5490 5484 5479 5475 5470 5465 5460 5455 5449 5444 5438 5432 5426 5420 5413 5407 5401 5397 5392 5386 5381 5376 5371 5366 5362 5357 5353 5348 5345 5341 5338 5335 5332 5329
5703 5701 5698 5696 5693 5690 5687 5685 5682 5680 5677 5673 5669 5666 5663 5660 5657 5653 5648 5644 5641 5638 5635 5627 5619 5619 5622 5617 5611 5605 5599 5595 5591 5586 5580 5576 5572 5567 5560 5554 5549 5543 5537 5531 5525 5519 5513 5507 5501 5494 5488 5482 5476 5470 5465 5459 5455 5450 5445 5440 5435 5430 5424 5419 5413 5407 5400 5394 5389 5384 5380 5374 5368 5364 5359 5355 5350 5346 5341 5337 5333 5330 5327 5324 5321 5318
5701 5699 5696 5693 5691 5688 5685 5682 5679 5677 5674 5671 5667 5663 5659 5656 5652 5649 5645 5640 5635 5632 5629 5623 5615 5612 5614 5612 5605 5599 5593 5589 5585 5580 5574 5568 5563 5559 5553 5546 5540 5534 5528 5522 5515 5508 5502 5495 5487 5480 5472 5465 5458 5451 5445 5439 5434 5430 5426 5423 5418 5414 5410 5404 5399 5393 5387 5381 5376 5371 5367 5361 5355 5351 5347 5342 5338 5334 5329 5325 5322 5319 5316 5313 5310 5307
5699 5696 5693 5690 5687 5684 5681 5678 5675 5673 5671 5668 5665 5660 5655 5651 5647 5644 5641 5636 5631 5626 5622 5619 5612 5607 5610 5607 5600 5594 5588 5583 5579 5574 5568 5562 5556 5550 5544 5538 5532 5525 5519 5512 5505 5498 5491 5484 5477 5470 5462 5454 5445 5437 5430 5423 5418 5413 5408 5405 5401 5397 5393 5389 5383 5378 5372 5367 5362 5357 5353 5347 5341 5337 5333 5329 5326 5322 5318 5314 5311 5308 5305 5302 5299 5297
5697 5694 5691 5688 5685 5682 5678 5675 5672 5669 5667 5665 5662 5657 5651 5646 5643 5640 5636 5633 5628 5621 5617 5616 5607 5600 5602 5602 5594 5588 5584 5577 5572 5567 5561 5556 5549 5543 5536 5529 5524 5517 5511 5504 5497 5491 5484 5477 5470 5462 5454 5447 5438 5430 5422 5414 5407 5401 5395 5390 5386 5381 5376 5372 5367 5361 5356 5351 5347 5342 5338 5332 5327 5323 5319 5316 5313 5310 5306 5302 5300 5297 5294 5291 5289 5286
5695 5692 5689 5686 5684 5680 5676 5673 5669 5666 5663 5661 5658 5654 5649 5643 5638 5635 5632 5629 5625 5616 5611 5612 5604 5594 5594 5593 5586 5580 5576 5570 5565 5560 5554 5549 5542 5535 5528 5522 5516 5510 5504 5497 5490 5483 5476 5469 5462 5455 5447 5440 5432 5423 5415 5406 5398 5391 5385 5379 5373 5367 5362 5356 5350 5345 5339 5335 5331 5327 5322 5318 5313 5310 5306 5303 5300 5297 5294 5291 5288 5286 5283 5280 5278 5276
5693 5690 5687 5684 5682 5679 5674 5670 5667 5663 5660 5657 5655 5651 5646 5641 5635 5631 5628 5625 5620 5612 5606 5605 5600 5593 5589 5585 5579 5574 5569 5562 5558 5553 5547 5541 5534 5527 5520 5514 5509 5503 5496 5489 5482 5475 5467 5460 5452 5445 5438 5431 5423 5416 5408 5399 5390 5382 5374 5367 5360 5353 5347 5341 5334 5329 5324 5319 5316 5312 5308 5303 5300 5297 5293 5290 5288 5284 5281 5279 5276 5274 5272 5269 5267 5265
5689 5687 5684 5681 5679 5678 5673 5667 5664 5661 5657 5655 5653 5648 5643 5638 5632 5626 5623 5620 5615 5608 5603 5598 5593 5590 5586 5579 5572 5568 5563 5556 5551 5545 5540 5534 5526 5518 5512 5506 5500 5494 5487 5480 5473 5466 5458 5450 5443 5435 5427 5420 5412 5404 5396 5388 5378 5370 5362 5354 5346 5339 5332 5326 5320 5315 5310 5305 5301 5298 5294 5290 5287 5284 5281 5278 5275 5272 5269 5267 5265 5263 5260 5258 5256 5254
5686 5684 5681 5677 5675 5675 5670 5665 5661 5657 5654 5651 5649 5645 5639 5633 5628 5622 5617 5614 5609 5604 5599 5593 5586 5583 5581 5575 5567 5562 5557 5549 5543 5537 5532 5526 5518 5510 5504 5499 5492 5486 5479 5472 5464 5457 5449 5441 5432 5424 5415 5407 5399 5391 5382 5374 5364 5355 5347 5339 5332 5325 5319 5313 5307 5302 5296 5291 5287 5284 5280 5276 5274 5271 5269 5266 5264 5261 5258 5256 5254 5252 5249 5247 5246 5244
5684 5680 5677 5673 5670 5670 5666 5661 5658 5654 5651 5647 5644 5639 5634 5628 5623 5617 5612 5607 5603 5598 5593 5587 5580 5575 5572 5567 5562 5558 5551 5543 5536 5530 5523 5517 5510 5503 5497 5491 5484 5477 5470 5462 5454 5446 5438 5429 5420 5412 5403 5395 5386 5376 5367 5357 5348 5339 5331 5324 5317 5311 5305 5299 5294 5288 5283 5278 5274 5271 5267 5264 5261 5259 5257 5254 5252 5249 5247 5245 5243 5240 5238 5237 5235 5234
5681 5677 5673 5669 5665 5664 5662 5656 5653 5650 5647 5644 5639 5634 5628 5623 5617 5612 5608 5604 5599 5593 5586 5580 5574 5569 5565 5560 5554 5549 5545 5538 5530 5523 5515 5507 5501 5496 5490 5483 5475 5468 5460 5451 5443 5434 5425 5417 5408 5399 5390 5381 5371 5361 5351 5341 5332 5324 5317 5310 5303 5297 5291 5285 5280 5274 5270 5265 5262 5258 5255 5252 5250 5247 5245 5243 5240 5239 5237 5235 5232 5230 5228 5227 5225 5224
5678 5674 5670 5665 5660 5659 5657 5652 5648 5646 5642 5639 5634 5627 5621 5617 5612 5606 5602 5599 5595 5589 5581 5574 5569 5564 5559 5553 5547 5541 5536 5530 5522 5516 5509 5500 5492 5487 5481 5474 5466 5458 5449 5441 5432 5423 5413 5404 5394 5385 5376 5367 5357 5347 5338 5329 5321 5312 5304 5296 5289 5283 5277 5271 5266 5261 5257 5253 5250 5246 5243 5241 5238 5236 5234 5232 5230 5228 5227 5225 5222 5220 5219 5217 5216 5214
5675 5671 5667 5663 5657 5653 5651 5647 5643 5641 5639 5634 5628 5623 5617 5613 5608 5601 5596 5593 5589 5584 5576 5569 5564 5559 5553 5547 5541 5534 5529 5523 5516 5510 5503 5495 5487 5480 5472 5465 5456 5448 5439 5430 5420 5410 5400 5390 5380 5372 5363 5353 5343 5333 5324 5315 5307 5299 5291 5283 5276 5270 5264 5258 5253 5249 5245 5241 5238 5235 5233 5230 5228 5225 5223 5221 5220 5218 5217 5215 5213 5211 5209 5208 5206 5205
5672 5668 5664 5660 5655 5650 5646 5642 5637 5635 5635 5631 5624 5618 5613 5607 5602 5596 5591 5588 5584 5577 5570 5564 5559 5553 5547 5541 5535 5528 5522 5517 5513 5507 5497 5489 5482 5473 5464 5455 5446 5437 5428 5418 5408 5398 5388 5378 5368 5358 5348 5338 5328 5319 5310 5301 5292 5284 5277 5270 5263 5256 5250 5245 5241 5237 5233 5230 5227 5225 5222 5220 5217 5215 5213 5212 5210 5209 5207 5205 5204 5202 5200 5199 5197 5195
5669 5665 5661 5656 5652 5647 5641 5637 5633 5629 5628 5625 5617 5611 5607 5601 5596 5589 5585 5584 5580 5571 5563 5557 5552 5547 5541 5534 5527 5521 5515 5512 5510 5505 5495 5485 5477 5468 5459 5449 5439 5430 5420 5409 5399 5389 5378 5367 5357 5345 5335 5325 5316 5306 5297 5288 5279 5270 5262 5255 5248 5242 5237 5233 5229 5225 5223 5220 5217 5214 5212 5209 5207 5206 5204 5202 5201 5199 5198 5196 5194 5192 5191 5190 5188 5186
5666 5662 5657 5653 5649 5643 5636 5631 5627 5623 5621 5617 5610 5605 5601 5596 5591 5584 5578 5577 5574 5566 5558 5552 5545 5539 5533 5526 5520 5515 5509 5504 5502 5497 5488 5479 5471 5461 5453 5444 5434 5423 5412 5401 5390 5379 5368 5356 5345 5333 5322 5312 5302 5293 5283 5274 5265 5257 5249 5242 5235 5230 5225 5221 5218 5216 5213 5211 5207 5205 5202 5200 5198 5197 5195 5194 5192 5191 5189 5187 5185 5183 5182 5181 5179 5178
5663 5659 5654 5649 5645 5640 5632 5627 5623 5619 5615 5611 5605 5601 5596 5590 5586 5579 5573 5571 5567 5559 5552 5546 5539 5532 5526 5519 5514 5508 5500 5493 5490 5485 5477 5469 5461 5452 5442 5433 5424 5414 5403 5392 5379 5367 5355 5343 5332 5321 5311 5301 5291 5281 5271 5261 5252 5243 5236 5229 5223 5218 5214 5211 5208 5206 5204 5201 5198 5195 5193 5191 5190 5188 5187 5185 5184 5182 5181 5179 5177 5175 5173 5172 5171 5169
5659 5655 5651 5645 5641 5636 5629 5623 5620 5615 5610 5605 5600 5596 5590 5584 5579 5573 5567 5564 5561 5554 5545 5539 5533 5527 5521 5515 5509 5503 5493 5483 5476 5471 5465 5457 5450 5442 5432 5422 5412 5402 5391 5381 5369 5357 5345 5333 5322 5312 5302 5291 5281 5270 5259 5249 5240 5231 5223 5217 5211 5207 5204 5201 5199 5196 5194 5191 5189 5187 5185 5183 5182 5181 5179 5178 5176 5174 5173 5171 5169 5167 5165 5164 5162 5161
5654 5650 5647 5641 5636 5631 5625 5619 5615 5611 5606 5600 5595 5590 5585 5579 5574 5569 5561 5556 5553 5548 5542 5535 5529 5523 5517 5509 5502 5495 5488 5478 5469 5462 5456 5449 5442 5435 5426 5416 5406 5395 5382 5370 5359 5348 5338 5327 5315 5304 5292 5281 5269 5258 5248 5238 5229 5220 5213 5206 5201 5197 5195 5192 5190 5187 5185 5183 5181 5179 5178 5176 5175 5173 5172 5170 5169 5167 5165 5163 5161 5159 5157 5156 5154 5152
5650 5645 5642 5637 5631 5626 5621 5615 5609 5605 5601 5595 5590 5585 5580 5574 5569 5564 5558 5551 5544 5539 5534 5529 5522 5516 5510 5504 5496 5489 5482 5475 5468 5460 5453 5445 5436 5428 5419 5409 5399 5389 5377 5365 5354 5342 5331 5320 5308 5297 5285 5272 5260 5248 5237 5227 5219 5211 5204 5198 5193 5190 5187 5185 5182 5180 5178 5176 5175 5173 5171 5170 5168 5166 5165 5163 5161 5160 5157 5155 5153 5151 5149 5148 5146 5144
5646 5641 5637 5633 5627 5621 5616 5610 5603 5598 5594 5590 5584 5579 5574 5569 5563 5558 5553 5547 5540 5533 5528 5522 5515 5509 5503 5498 5491 5485 5478 5471 5464 5457 5449 5441 5432 5422 5413 5402 5391 5381 5370 5358 5346 5334 5323 5312 5301 5289 5276 5264 5251 5240 5229 5220 5211 5203 5196 5191 5187 5184 5181 5179 5176 5174 5172 5171 5169 5167 5165 5164 5162 5160 5158 5156 5155 5153 5150 5148 5146 5144 5142 5140 5139 5137
5644 5638 5632 5628 5623 5617 5612 5607 5600 5594 5589 5584 5578 5573 5567 5561 5556 5550 5545 5541 5535 5528 5522 5516 5510 5503 5497 5492 5486 5480 5474 5467 5459 5452 5444 5436 5427 5417 5407 5397 5385 5374 5362 5350 5338 5326 5315 5305 5294 5282 5269 5257 5245 5234 5224 5214 5205 5198 5191 5186 5182 5179 5177 5174 5172 5170 5168 5166 5164 5162 5160 5158 5156 5154 5152 5150 5148 5146 5144 5141 5139 5137 5135 5133 5131 5129
5640 5634 5629 5625 5620 5614 5609 5604 5597 5593 5588 5580 5573 5568 5563 5557 5551 5544 5538 5533 5527 5522 5516 5510 5504 5498 5492 5487 5481 5474 5468 5461 5454 5446 5438 5429 5420 5411 5400 5389 5377 5365 5354 5342 5331 5320 5310 5299 5287 5276 5264 5252 5240 5230 5220 5211 5203 5195 5189 5184 5179 5176 5173 5171 5168 5166 5163 5161 5159 5157 5155 5153 5151 5148 5146 5144 5142 5140 5137 5135 5133 5130 5128 5125 5124 5122
5637 5631 5626 5622 5618 5612 5606 5601 5594 5590 5586 5578 5571 5564 5559 5553 5548 5542 5535 5529 5523 5516 5510 5503 5498 5492 5487 5481 5475 5469 5462 5455 5448 5441 5432 5423 5414 5404 5394 5383 5371 5359 5347 5336 5326 5316 5306 5295 5284 5272 5261 5249 5238 5227 5218 5209 5201 5194 5188 5182 5178 5174 5171 5168 5165 5162 5160 5158 5155 5153 5151 5148 5145 5143 5140 5138 5136 5134 5131 5129 5127 5124 5121 5119 5117 5115
5633 5628 5622 5617 5613 5607 5602 5597 5591 5586 5582 5575 5568 5562 5555 5549 5543 5537 5531 5525 5519 5513 5506 5500 5493 5487 5481 5475 5469 5463 5456 5449 5442 5434 5426 5417 5408 5398 5387 5376 5364 5352 5340 5330 5320 5311 5301 5291 5281 5270 5259 5247 5236 5226 5217 5208 5200 5193 5187 5182 5177 5173 5169 5166 5163 5160 5157 5154 5151 5149 5146 5143 5141 5138 5135 5133 5130 5128 5125 5123 5120 5118 5115 5113 5110 5108
5629 5624 5619 5614 5609 5603 5598 5593 5587 5582 5576 5569 5563 5558 5553 5547 5541 5533 5527 5520 5514 5507 5502 5496 5490 5484 5477 5471 5464 5458 5450 5443 5435 5427 5419 5410 5401 5391 5380 5368 5357 5346 5335 5325 5316 5306 5297 5288 5278 5267 5257 5246 5235 5225 5216 5208 5200 5193 5187 5182 5177 5172 5168 5164 5161 5157 5154 5151 5148 5145 5142 5139 5136 5134 5131 5128 5125 5123 5120 5117 5115 5112 5109 5106 5104 5102
5625 5619 5614 5609 5605 5599 5593 5588 5584 5579 5574 5567 5560 5554 5549 5543 5537 5530 5522 5516 5509 5503 5497 5491 5486 5480 5474 5467 5459 5453 5446 5438 5429 5421 5412 5404 5395 5385 5374 5362 5350 5339 5329 5320 5311 5303 5294 5285 5276 5265 5255 5245 5234 5225 5216 5208 5201 5194 5188 5182 5177 5172 5167 5163 5159 5155 5152 5148 5145 5142 5139 5136 5133 5130 5127 5124 5121 5118 5115 5112 5109 5107 5104 5101 5098 5096
5619 5614 5609 5603 5599 5594 5588 5583 5578 5573 5569 5564 5556 5549 5544 5538 5532 5525 5518 5512 5506 5499 5493 5487 5480 5474 5468 5462 5455 5448 5440 5433 5424 5416 5407 5398 5388 5378 5367 5356 5345 5335 5325 5316 5307 5299 5291 5283 5274 5264 5254 5244 5234 5225 5217 5209 5201 5195 5188 5182 5177 5172 5167 5163 5158 5154 5150 5147 5143 5139 5136 5133 5129 5126 5123 5120 5117 5114 5111 5107 5104 5101 5099 5096 5093 5090
5614 5609 5604 5598 5593 5588 5583 5577 5572 5566 5561 5556 5551 5544 5538 5532 5526 5520 5514 5507 5501 5495 5488 5482 5475 5469 5462 5456 5449 5442 5434 5426 5419 5410 5401 5392 5382 5371 5360 5350 5340 5330 5321 5313 5305 5297 5289 5281 5272 5263 5254 5245 5235 5226 5217 5209 5202 5196 5189 5183 5178 5172 5167 5163 5158 5153 5149 5145 5141 5138 5134 5131 5127 5123 5120 5117 5114 5111 5108 5104 5100 5096 5093 5091 5089 5086